Location: Fremont
(37.5480°N, 121.9880°W)
Time: 20:00:05
(UTC-07:00)

Daily predictions for brighter satellites

Satellite Brightness Start Highest point End
(mag) Time Altitude Azimuth Time Altitude Azimuth Time Altitude Azimuth
AQUARIUS 4.4 18:44:32 10° S 18:49:00 80° WSW 18:53:32 10° NNW
SL-8 R/B 4.4 18:44:52 10° WSW 18:49:34 51° NNW 18:54:17 10° NE
MOS 1 4.5 18:48:14 10° SE 18:53:40 51° ENE 18:59:09 10° N
CZ-4 R/B 1.6 18:50:25 10° SSE 18:54:38 84° W 18:58:48 10° NNW
Cosmos 1842 Rocket 3.6 18:50:17 10° S 18:54:44 76° E 18:59:12 10° N
Abrixas 2.7 18:52:55 10° SSW 18:54:51 29° SE 18:56:42 11° ENE
CZ-4 R/B 4.5 18:51:18 10° SSE 18:55:21 58° ENE 18:59:26 10° N
Cosmos 921 Rocket 3.5 18:52:05 10° N 18:56:14 38° ENE 19:00:18 10° SE
Ariane Rocket 4.0 18:53:10 10° S 18:58:08 53° W 19:03:08 10° NNW
Cosmos 44 Rocket 3.5 18:56:12 10° S 19:00:41 45° ESE 19:05:10 10° NE
Cosmos 2360 Rocket 2.2 18:55:43 10° NNW 19:01:22 69° ENE 19:07:00 10° SSE
BREEZE M DEB (TANK) 4.2 18:58:19 10° NW 19:02:15 18° N 19:04:28 10° NE
COSMOS 2428 3.3 19:03:27 10° N 19:08:37 35° ENE 19:13:46 10° SE
Cosmos 1500 Rocket 3.4 19:04:39 10° N 19:09:01 80° E 19:13:19 10° S
Cosmos 2322 Rocket 3.9 19:04:56 10° NW 19:10:05 38° WSW 19:15:13 10° S
Cosmos 2333 Rocket 3.5 19:07:16 10° N 19:11:27 20° NE 19:14:33 14° E
Cosmos 2219 3.5 19:07:35 10° S 19:13:00 44° ESE 19:18:26 10° NE
Cosmos 1269 Rocket 4.2 19:12:33 10° S 19:17:36 48° ESE 19:22:39 10° NNE
CZ-4C R/B 2.1 19:15:15 10° SSW 19:20:12 56° ESE 19:25:47 10° NE
FENGYUN 3A 3.8 19:15:09 10° SE 19:20:19 49° ENE 19:25:31 10° N
USA 267 4.3 19:16:14 14° ENE 19:20:24 24° ESE 19:25:31 10° S
EO 1 Del DPAF 3.9 19:17:34 10° N 19:21:22 58° WNW 19:25:08 10° SSW
Cosmos 2297 Rocket 3.8 19:20:07 10° SE 19:21:52 13° ESE 19:21:52 13° ESE
SPOT 3 Rocket 3.5 19:18:39 10° SSE 19:23:49 78° ENE 19:29:03 10° N
ERS-2 3.9 19:20:43 10° SSW 19:24:08 36° W 19:27:35 10° NNW
Cosmos 1315 Rocket 2.8 19:21:36 10° N 19:25:42 83° E 19:29:49 10° S
Aureole 2 Rocket 3.9 19:23:19 10° N 19:26:34 24° ENE 19:27:30 22° E
ASTRO E2 4.1 19:29:09 10° WSW 19:32:39 29° S 19:35:10 16° SE
Cosmos 1452 Rocket 3.8 19:28:50 10° NNW 19:34:05 72° WSW 19:39:18 10° S
COSMO-SKYMED 1 3.3 19:30:02 10° N 19:34:17 57° WNW 19:38:31 10° SSW
Cosmos 1726 2.1 19:31:54 10° S 19:35:30 53° E 19:39:07 10° NNE
Sich 1 3.8 19:32:06 10° NNE 19:36:00 31° ENE 19:37:55 22° ESE
Cosmos 2322 3.9 19:31:12 10° NNW 19:36:56 76° WSW 19:42:35 10° SSE
Cosmos 2098 Rocket 3.3 19:34:32 10° S 19:38:50 68° E 19:44:24 10° NNE
ALOS 2.2 19:35:53 10° SSE 19:40:32 81° ENE 19:45:14 10° N
BREEZE-M DEB (TANK) 4.2 19:39:51 10° NW 19:40:52 12° NNW 19:41:36 11° N
Meteor 2-10 4.2 19:36:59 10° SSE 19:41:41 43° E 19:46:30 10° NNE
Cosmos 1535 Rocket 4.4 19:38:51 10° S 19:44:54 66° E 19:50:57 10° NNE
SJ-6B 4.0 19:47:03 24° NE 19:47:03 24° NE 19:49:07 10° N
Iridium 4 Rocket 3.7 19:41:41 10° S 19:47:12 90° E 19:53:05 10° N
Cosmos 494 Rocket 4.5 19:42:43 10° SSE 19:47:17 34° E 19:48:37 30° ENE
Cosmos 1805 Rocket 3.4 19:43:27 10° N 19:47:50 66° E 19:52:12 10° SSE
Cosmos 2219 Rocket 2.4 19:43:53 10° N 19:49:16 45° ENE 19:51:55 27° ESE
RESURS DK-1 4.2 19:48:00 10° NW 19:51:41 32° WSW 19:55:22 10° S
BREEZE-M DEB (TANK) 4.1 19:45:04 10° WNW 19:54:47 38° NNW 19:56:57 24° NE
Cosmos 1666 Rocket 3.6 19:52:41 10° N 19:56:55 51° E 19:57:57 41° SE
Cosmos 1633 Rocket 3.3 19:59:02 10° N 20:02:58 48° ENE 20:02:58 48° ENE
MOS 1-B Rocket 4.3 20:03:20 38° E 20:04:00 39° ENE 20:09:32 10° N
H-2A R/B 2.6 20:06:09 51° SSE 20:07:04 80° ENE 20:10:59 10° N
DELTA 2 R/B (1) 3.9 20:04:08 10° WNW 20:09:38 61° SSW 20:11:39 38° SE
Cosmos 2251 Rocket 4.4 20:05:20 10° S 20:08:28 31° SE 20:08:28 31° SE
Cosmos 2333 4.4 20:07:02 10° NNW 20:12:45 73° WSW 20:18:28 10° SSE
Atlas Centaur 2 3.6 20:11:20 10° WSW 20:15:10 24° SSW 20:17:04 20° SSE
Cosmos 1821 Rocket 4.4 20:09:23 10° SSW 20:15:28 62° W 20:21:40 10° N
Cosmos 1934 Rocket 4.1 20:10:44 10° S 20:17:05 81° W 20:23:29 10° N
Gbstr 26 Del rocket 3.7 20:13:05 10° NW 20:18:21 69° NE 20:19:35 54° E
In-Cosmos 22 Rocket 4.1 20:17:03 10° N 20:22:49 74° E 20:25:14 37° SSE
Cosmos 2237 Rocket 2.6 20:18:13 10° N 20:22:57 44° NE 20:22:57 44° NE
Delta 2 Rocket 4.3 20:22:44 10° W 20:25:19 36° WSW 20:25:19 36° WSW
Cosmos 1300 3.7 20:23:55 10° SSW 20:27:36 46° W 20:30:49 13° N
Thor Agena Rocket 4.3 20:22:49 10° N 20:27:43 49° WNW 20:32:34 10° SW
Cosmos 2227 Rocket 2.0 20:23:05 10° SSW 20:28:41 70° ESE 20:28:43 70° ESE
SL-16 R/B 4.0 20:30:17 10° N 20:32:02 17° NNE 20:32:02 17° NNE
Hubble Space Telescope 3.4 20:39:21 10° SW 20:39:57 12° SSW 20:39:57 12° SSW
Cosmos 1331 Rocket 4.4 20:42:03 10° NNW 20:46:08 55° NNW 20:46:08 55° NNW
Cosmos 1980 3.9 20:41:59 10° NNW 20:46:33 59° N 20:46:33 59° N
Cosmos 2123 Rocket 4.4 20:41:33 10° NNW 20:47:41 61° W 20:53:50 10° S
Cosmos 1605 Rocket 4.2 20:43:46 10° SSW 20:49:49 65° W 20:55:53 10° N
COSMOS 2428 4.4 20:47:51 10° NW 20:52:44 30° WSW 20:57:36 10° SSW
Cosmos 2333 Rocket 2.6 20:50:28 10° NNW 20:56:07 58° WSW 20:56:37 56° SW
Resurs 01 Rocket 4.2 21:02:43 13° NNW 21:02:43 13° NNW 21:03:10 10° NNW
USA 267 3.2 21:03:38 80° NNW 21:03:46 80° NW 21:10:17 10° SW
Cosmos 2297 Rocket 3.4 21:00:41 10° SSW 21:03:49 34° SW 21:03:49 34° SW
CZ-4C R/B 4.2 21:04:58 10° W 21:09:10 23° NW 21:12:22 15° N
Centaur D AC-28 4.0 21:16:16 10° SW 21:57:25 - E 21:19:20 35° SSW
Cosmos 2219 Rocket 4.2 21:28:38 10° NW 21:32:50 22° W 21:33:43 21° WSW
